Home   Weather   Modi'in-Maccabim-Re'ut   Past weeks

Flag for Israel Past Weather in Modi'in-Maccabim-Re'ut, Israel — Yesterday and Last 2 Weeks

Now
84 °F

Passing clouds.


Feels Like: 88 °F
Forecast: 73 / 91 °F
Wind: 9 mph from North

Location: Ben Gurion International Airport

Current Time: Jul 23, 2017 at 7:59:48 pm

Latest Report: Jul 23, 2017 at 7:20 pm


Visibility: N/A

Pressure: 29.74 "Hg

Humidity: 62%

Dew Point: 70 °F

Location of Modi'in-Maccabim-Re'utLocation

Past Weather in Modi'in-Maccabim-Re'ut — Graph

°F

Modi'in-Maccabim-Re'ut Temperature Yesterday

Maximum temperature yesterday: 90 °F (at 1:50 pm)
Minimum temperature yesterday: 77 °F (at 3:20 am)
Average temperature yesterday: 83 °F

High & Low Weather Summary for the Past Weeks

 TemperatureHumidityPressure
High99 °F (Jul 16, 12:50 pm)89% (Jul 10, 3:50 am)29.86 "Hg (Jul 10, 3:50 am)
Low72 °F (Jul 16, 5:20 am)24% (Jul 16, 1:20 pm)29.59 "Hg (Jul 13, 5:20 pm)
Average84 °F63%29.74 "Hg
* Reported Jul 8 6:20 pm — Jul 23 6:20 pm, Modi'in-Maccabim-Re'ut. Weather by CustomWeather, © 2017

Note: Actual official high and low records may vary slightly from our data, if they occured in-between our weather recording intervals... More about our weather records

Advertising

Modi'in-Maccabim-Re'ut Weather History for the Previous 24 Hours

Scroll right to see more
 ConditionsComfort  
Time TempWeatherWind HumidityBarometerVisibility
6:20 pm
Sun, Jul 23
86 °FSunny.12 mph59%29.71 "Hg10 mi
5:50 pm86 °FPassing clouds.12 mph59%29.71 "HgN/A
5:20 pm86 °FSunny.13 mph59%29.71 "Hg10 mi
4:50 pm88 °FSunny.13 mph55%29.74 "Hg10 mi
4:20 pm88 °FSunny.13 mph55%29.74 "Hg10 mi
3:50 pm88 °FPassing clouds.13 mph55%29.74 "HgN/A
3:20 pm88 °FSunny.13 mph55%29.74 "Hg10 mi
2:50 pm88 °FSunny.14 mph55%29.74 "Hg10 mi
2:20 pm88 °FPassing clouds.12 mph52%29.77 "HgN/A
1:50 pm90 °FSunny.14 mph49%29.77 "Hg10 mi
1:20 pm88 °FSunny.10 mph52%29.77 "Hg10 mi
12:50 pm88 °FSunny.10 mph52%29.77 "Hg10 mi
12:20 pm88 °FPassing clouds.9 mph52%29.77 "HgN/A
11:50 am88 °FPassing clouds.7 mph52%29.77 "HgN/A
11:20 am88 °FPassing clouds.8 mph52%29.80 "HgN/A
10:20 am84 °FPassing clouds.9 mph55%29.80 "HgN/A
9:50 am86 °FPassing clouds.3 mph52%29.80 "HgN/A
8:50 am84 °FPassing clouds.2 mph58%29.80 "HgN/A
8:20 am82 °FPassing clouds.2 mph62%29.80 "HgN/A
7:50 am81 °FPassing clouds.5 mph66%29.80 "HgN/A
7:20 am79 °FPassing clouds.3 mph70%29.80 "HgN/A
6:50 am77 °FPassing clouds.6 mph74%29.80 "HgN/A
6:20 am77 °FPassing clouds.2 mph74%29.80 "HgN/A
5:50 am77 °FPassing clouds.5 mph74%29.80 "HgN/A
5:20 am77 °FPassing clouds.6 mph74%29.80 "HgN/A
4:20 am77 °FPassing clouds.6 mph74%29.80 "HgN/A
3:50 am79 °FPassing clouds.6 mph70%29.80 "HgN/A
3:20 am79 °FPassing clouds.3 mph70%29.80 "HgN/A
2:50 am77 °FPassing clouds.1 mph74%29.80 "HgN/A
2:20 am77 °FPassing clouds.1 mph74%29.80 "HgN/A
1:50 am77 °FPassing clouds.2 mph74%29.80 "HgN/A
1:20 am79 °FPassing clouds.3 mph70%29.80 "HgN/A
12:50 am79 °FPassing clouds.3 mph74%29.80 "HgN/A
12:20 am79 °FPassing clouds.3 mph70%29.83 "HgN/A
11:50 pm
Sat, Jul 22
81 °FPassing clouds.3 mph70%29.83 "HgN/A
11:20 pm81 °FPassing clouds.3 mph70%29.83 "HgN/A
10:50 pm81 °FPassing clouds.3 mph70%29.83 "HgN/A
10:20 pm81 °FPassing clouds.5 mph70%29.83 "HgN/A
9:50 pm81 °FPassing clouds.5 mph70%29.83 "HgN/A
9:20 pm82 °FPassing clouds.6 mph66%29.83 "HgN/A
8:50 pm82 °FPassing clouds.6 mph62%29.80 "HgN/A
8:20 pm82 °FClear.8 mph66%29.80 "Hg10 mi
7:50 pm82 °FClear.9 mph66%29.80 "Hg10 mi
7:20 pm84 °FSunny.8 mph58%29.80 "Hg10 mi
Weather by CustomWeather, © 2017

See weather overviewHow to use our weather pages